• In Deutschland
  • Länderverzeichnis
  • Für 7 Tage
  • Wassertemperatur
  • Satellitenkarten
  • Wetterkarte
  • Widgets
  • user-avatar
    Anmelden

    Stündliche Wetter Rastatt

    Heute, 17 Oktober, Dienstag

    Zeit Temperatur Niederschläge Wind Luftdruck Luftfeuchtigkeit
    00:00 +16°C° 0 mm 1 m/S 758 mmHg 69%
    01:00 +16°C° 0 mm 2 m/S 758 mmHg 66%
    02:00 +16°C° 0 mm 2 m/S 757 mmHg 66%
    03:00 +15°C° 0 mm 1 m/S 757 mmHg 66%
    04:00 +15°C° 0 mm 1 m/S 757 mmHg 66%
    05:00 +15°C° 0 mm 1 m/S 757 mmHg 66%
    06:00 +14°C° 0 mm 1 m/S 757 mmHg 66%
    07:00 +13°C° 0 mm 1 m/S 757 mmHg 62%
    08:00 +15°C° 0 mm 1 m/S 757 mmHg 58%
    09:00 +18°C° 0 mm 1 m/S 757 mmHg 54%
    10:00 +20°C° 0 mm 1 m/S 757 mmHg 50%
    11:00 +22°C° 0 mm 1 m/S 757 mmHg 47%
    12:00 +23°C° 0 mm 1 m/S 756 mmHg 44%
    13:00 +25°C° 0 mm 1 m/S 756 mmHg 41%
    14:00 +24°C° 0 mm 1 m/S 755 mmHg 44%
    15:00 +22°C° 0 mm 0 m/S 755 mmHg 47%
    16:00 +22°C° 0 mm 0 m/S 754 mmHg 51%
    17:00 +20°C° 0 mm 0 m/S 754 mmHg 55%
    18:00 +17°C° 0 mm 0 m/S 754 mmHg 58%
    19:00 +15°C° 0 mm 0 m/S 754 mmHg 62%
    20:00 +16°C° 0 mm 1 m/S 754 mmHg 63%
    21:00 +15°C° 0 mm 1 m/S 754 mmHg 65%
    22:00 +15°C° 0 mm 1 m/S 754 mmHg 66%
    23:00 +15°C° 0 mm 1 m/S 754 mmHg 66%

    Morgen, 18 Oktober, Mittwoch

    Zeit Temperatur Niederschläge Wind Luftdruck Luftfeuchtigkeit
    00:00 +14°C° 0 mm 1 m/S 753 mmHg 66%
    01:00 +14°C° 0 mm 1 m/S 753 mmHg 66%
    02:00 +14°C° 0 mm 1 m/S 753 mmHg 66%
    03:00 +14°C° 0 mm 1 m/S 753 mmHg 66%
    04:00 +14°C° 0 mm 1 m/S 752 mmHg 65%
    05:00 +13°C° 0 mm 1 m/S 752 mmHg 65%
    06:00 +13°C° 0 mm 1 m/S 752 mmHg 64%
    07:00 +13°C° 0 mm 1 m/S 752 mmHg 64%
    08:00 +15°C° 0 mm 1 m/S 752 mmHg 60%
    09:00 +18°C° 0 mm 1 m/S 752 mmHg 55%
    10:00 +20°C° 0 mm 1 m/S 752 mmHg 51%
    11:00 +21°C° 0 mm 1 m/S 752 mmHg 48%
    12:00 +22°C° 0 mm 1 m/S 751 mmHg 46%
    13:00 +24°C° 0 mm 1 m/S 751 mmHg 43%
    14:00 +23°C° 0 mm 1 m/S 751 mmHg 46%
    15:00 +23°C° 0 mm 1 m/S 751 mmHg 50%
    16:00 +23°C° 0 mm 1 m/S 750 mmHg 53%
    17:00 +21°C° 0 mm 1 m/S 750 mmHg 58%
    18:00 +19°C° 0 mm 1 m/S 751 mmHg 62%
    19:00 +16°C° 0 mm 1 m/S 751 mmHg 67%
    20:00 +15°C° 0 mm 1 m/S 751 mmHg 69%
    21:00 +15°C° 0 mm 1 m/S 751 mmHg 70%
    22:00 +15°C° 0 mm 1 m/S 751 mmHg 71%
    23:00 +14°C° 0 mm 1 m/S 751 mmHg 72%

    übermorgen, 19 Oktober, Donnerstag

    Zeit Temperatur Niederschläge Wind Luftdruck Luftfeuchtigkeit
    00:00 +14°C° 0 mm 1 m/S 751 mmHg 73%
    01:00 +14°C° 0 mm 1 m/S 751 mmHg 73%
    02:00 +13°C° 0 mm 1 m/S 750 mmHg 73%
    03:00 +13°C° 0 mm 1 m/S 750 mmHg 73%
    04:00 +13°C° 0 mm 1 m/S 750 mmHg 72%
    05:00 +13°C° 0 mm 1 m/S 750 mmHg 72%
    06:00 +13°C° 0 mm 1 m/S 750 mmHg 72%
    07:00 +13°C° 0 mm 1 m/S 750 mmHg 71%
    08:00 +15°C° 0 mm 1 m/S 750 mmHg 66%
    09:00 +18°C° 0 mm 1 m/S 750 mmHg 61%
    10:00 +19°C° 0 mm 1 m/S 750 mmHg 55%
    11:00 +20°C° 0 mm 1 m/S 750 mmHg 54%
    12:00 +21°C° 0 mm 1 m/S 750 mmHg 52%
    13:00 +22°C° 0 mm 1 m/S 750 mmHg 51%
    14:00 +22°C° 0 mm 1 m/S 750 mmHg 53%
    15:00 +21°C° 0 mm 1 m/S 750 mmHg 56%
    16:00 +21°C° 0 mm 1 m/S 750 mmHg 59%
    17:00 +20°C° 0 mm 1 m/S 750 mmHg 62%
    18:00 +18°C° 0 mm 1 m/S 750 mmHg 65%
    19:00 +16°C° 0 mm 1 m/S 750 mmHg 68%
    20:00 +15°C° 0 mm 1 m/S 750 mmHg 68%
    21:00 +15°C° 0 mm 1 m/S 750 mmHg 69%
    22:00 +15°C° 0 mm 1 m/S 751 mmHg 69%
    23:00 +15°C° 0 mm 1 m/S 751 mmHg 70%

    20 Oktober, Freitag

    Zeit Temperatur Niederschläge Wind Luftdruck Luftfeuchtigkeit
    00:00 +15°C° 0 mm 2 m/S 751 mmHg 70%
    01:00 +14°C° 0 mm 2 m/S 751 mmHg 71%
    02:00 +14°C° 0 mm 2 m/S 751 mmHg 70%
    03:00 +14°C° 0 mm 2 m/S 751 mmHg 68%
    04:00 +14°C° 0 mm 2 m/S 751 mmHg 67%
    05:00 +14°C° 0 mm 2 m/S 751 mmHg 66%
    06:00 +14°C° 0 mm 2 m/S 751 mmHg 66%
    07:00 +14°C° 0 mm 2 m/S 751 mmHg 65%
    08:00 +15°C° 0 mm 2 m/S 752 mmHg 63%
    09:00 +17°C° 0 mm 2 m/S 752 mmHg 61%
    10:00 +18°C° 0 mm 3 m/S 752 mmHg 59%
    11:00 +20°C° 0 mm 3 m/S 752 mmHg 57%
    12:00 +21°C° 0 mm 3 m/S 752 mmHg 55%
    13:00 +22°C° 0 mm 4 m/S 752 mmHg 52%
    14:00 +22°C° 0 mm 3 m/S 752 mmHg 55%
    15:00 +22°C° 0 mm 3 m/S 752 mmHg 58%
    16:00 +23°C° 0 mm 2 m/S 751 mmHg 61%
    17:00 +20°C° 0 mm 2 m/S 752 mmHg 66%
    18:00 +19°C° 0 mm 1 m/S 752 mmHg 71%
    19:00 +18°C° 0 mm 1 m/S 752 mmHg 76%
    20:00 +16°C° 0 mm 1 m/S 752 mmHg 76%
    21:00 +16°C° 0 mm 1 m/S 752 mmHg 76%
    22:00 +15°C° 0 mm 2 m/S 752 mmHg 77%
    23:00 +15°C° 0 mm 2 m/S 752 mmHg 76%

    21 Oktober, Samstag

    Zeit Temperatur Niederschläge Wind Luftdruck Luftfeuchtigkeit
    00:00 +15°C° 0 mm 2 m/S 752 mmHg 76%
    01:00 +15°C° 0 mm 2 m/S 752 mmHg 75%
    02:00 +15°C° 0 mm 2 m/S 752 mmHg 74%
    03:00 +14°C° 0 mm 2 m/S 751 mmHg 73%
    04:00 +14°C° 0 mm 2 m/S 751 mmHg 72%
    05:00 +14°C° 0 mm 2 m/S 751 mmHg 72%
    06:00 +14°C° 0 mm 2 m/S 751 mmHg 72%
    07:00 +14°C° 0 mm 2 m/S 751 mmHg 72%
    08:00 +16°C° 0 mm 3 m/S 751 mmHg 68%
    09:00 +18°C° 0 mm 4 m/S 751 mmHg 63%
    10:00 +19°C° 0 mm 4 m/S 751 mmHg 59%
    11:00 +19°C° 0,5 mm 4 m/S 751 mmHg 66%
    12:00 +18°C° 0,5 mm 4 m/S 751 mmHg 72%
    13:00 +17°C° 0,5 mm 4 m/S 752 mmHg 79%
    14:00 +17°C° 0,3 mm 3 m/S 752 mmHg 82%
    15:00 +17°C° 0,3 mm 3 m/S 752 mmHg 84%
    16:00 +16°C° 0,3 mm 3 m/S 752 mmHg 87%
    17:00 +16°C° 0,1 mm 3 m/S 753 mmHg 87%
    18:00 +14°C° 0,1 mm 3 m/S 753 mmHg 88%
    19:00 +14°C° 0,1 mm 3 m/S 753 mmHg 88%
    20:00 +14°C° 0,1 mm 3 m/S 754 mmHg 89%
    21:00 +13°C° 0,1 mm 3 m/S 754 mmHg 89%
    22:00 +14°C° 0,1 mm 2 m/S 754 mmHg 89%
    23:00 +12°C° 0,1 mm 3 m/S 754 mmHg 89%

    22 Oktober, Sonntag

    Zeit Temperatur Niederschläge Wind Luftdruck Luftfeuchtigkeit
    00:00 +12°C° 0,1 mm 3 m/S 754 mmHg 89%
    01:00 +12°C° 0,1 mm 3 m/S 754 mmHg 89%
    02:00 +11°C° 0,1 mm 3 m/S 754 mmHg 89%
    03:00 +11°C° 0,1 mm 3 m/S 755 mmHg 89%
    04:00 +10°C° 0,1 mm 3 m/S 755 mmHg 89%
    05:00 +10°C° 0 mm 3 m/S 755 mmHg 89%
    06:00 +10°C° 0 mm 3 m/S 755 mmHg 90%
    07:00 +9°C° 0 mm 3 m/S 755 mmHg 90%
    08:00 +10°C° 0 mm 4 m/S 755 mmHg 85%
    09:00 +11°C° 0 mm 4 m/S 755 mmHg 80%
    10:00 +11°C° 0 mm 4 m/S 756 mmHg 75%
    11:00 +12°C° 0,1 mm 4 m/S 756 mmHg 71%
    12:00 +12°C° 0,1 mm 4 m/S 756 mmHg 68%
    13:00 +13°C° 0,1 mm 4 m/S 756 mmHg 64%
    14:00 +13°C° 0,1 mm 4 m/S 756 mmHg 64%
    15:00 +12°C° 0,1 mm 4 m/S 756 mmHg 64%
    16:00 +12°C° 0,1 mm 4 m/S 756 mmHg 64%
    17:00 +11°C° 0,1 mm 3 m/S 757 mmHg 69%
    18:00 +10°C° 0,1 mm 3 m/S 757 mmHg 74%
    19:00 +9°C° 0,1 mm 2 m/S 758 mmHg 79%
    20:00 +8°C° 0 mm 3 m/S 758 mmHg 80%
    21:00 +8°C° 0 mm 3 m/S 758 mmHg 81%
    22:00 +8°C° 0 mm 3 m/S 759 mmHg 82%
    23:00 +7°C° 0 mm 3 m/S 759 mmHg 83%
    Mehr zeigen